SCP
0 0 0 0 0 -0 0 0 0 1 1 1 0 0 0 0 0 0 0 0 0 0 0 0 0 0 0 0 0 0 0 0 0 0 0 0 0 0 0 0 0 0 0
0 0 0 0 0 0 0 0 0 0 1 0 0 0 0 0 0 0 0 0 0 0 0 0 0 0 0 0 0 0 0 0 0 0 0 0 0 0 0 0 0 0 0
0 0 0 0 0 0 0 0 0 0 0 0 0 0 0 0 0 0 0 0 0 0 0 0 0 0 0 0 0 0 0 0 0 0 0 0 0 0 0 0 0 0 0
0 0 0 1 0 0 0 0 0 0 0 1 0 0 0 0 0 0 0 0 0 0 0 0 0 0 0 0 0 0 0 0 0 0 0 0 0 0 0 0 0 0 0
0 0 0 0 0 1 0 1 1 1 0 0 0 0 0 0 0 0 0 0 0 0 0 0 0 0 0 0 0 0 0 0 0 0 0 0 0 0 0 0 0 0 0
0 0 0 1 1 1 0 1 1 1 0 0 0 0 0 0 0 0 0 0 0 0 0 0 0 0 0 0 0 0 0 0 0 0 0 0 0 0 0 0 0 0 0
0 0 0 0 1 1 1 1 0 0 0 0 0 0 0 0 0 0 0 0 0 0 0 0 0 0 0 0 0 0 0 0 0 0 0 0 0 0 0 0 0 0 0
0 0 0 0 0 0 1 0 0 0 0 0 0 0 0 0 0 0 0 0 0 0 0 0 0 0 0 0 0 0 0 0 0 0 0 0 0 0 0 0 0 0 0
0 0 0 0 0 0 0 -0 0 0 0 0 0 1 0 0 0 0 0 0 0 0 0 0 0 0 0 0 0 0 0 0 0 0 0 0 0 0 0 0 0 0 0
0 0 0 0 0 1 1 0 0 0 0 0 0 0 0 0 0 0 0 0 0 0 0 0 0 0 0 0 0 0 0 0 0 0 0 0 0 0 0 0 0 0 0
0 0 0 0 0 0 0 1 1 1 1 1 0 0 0 0 0 0 0 0 0 0 0 0 0 0 0 0 0 0 0 0 0 0 0 0 0 0 0 0 0 0 0
0 0 0 0 0 0 0 1 1 1 1 1 0 0 0 0 0 0 0 0 0 0 0 0 0 0 0 0 0 0 0 0 0 0 0 0 0 0 0 0 0 0 0
0 0 0 0 0 0 0 1 1 1 0 0 0 0 0 0 0 0 0 0 0 0 0 0 0 0 0 0 0 0 0 0 0 0 0 0 0 0 0 0 0 0 0
0 0 0 0 0 0 0 1 1 0 0 0 0 0 0 0 0 0 0 0 0 0 0 0 0 0 0 0 0 0 0 0 0 0 0 0 0 0 0 0 0 0 0
0 0 0 0 0 0 0 1 0 0 0 0 0 0 0 0 0 0 0 0 0 0 0 0 0 0 0 0 0 0 0 0 0 0 0 0 0 0 0 0 0 0 0
0 0 0 0 0 0 0 1 0 0 0 0 0 0 0 0 0 0 0 0 0 0 0 0 0 0 0 0 0 0 0 0 0 0 0 0 0 0 0 0 0 0 0
0 0 0 0 0 0 1 0 0 0 0 0 0 0 0 0 0 0 0 0 0 0 0 0 0 0 0 0 0 0 0 0 0 0 0 0 0 0 0 0 0 0 0
0 0 0 0 0 0 0 0 0 0 0 0 0 0 0 0 0 0 0 0 0 0 0 0 0 0 0 0 0 0 0 0 0 0 0 0 0 0 0 0 0 0 0
0 0 0 0 0 0 0 0 0 0 0 0 0 0 0 0 0 0 0 0 0 0 0 0 0 0 0 0 0 0 0 0 0 0 0 0 0 0 0 0 0 0 0
0 0 0 0 0 0 0 0 0 0 0 0 0 0 0 0 0 0 0 0 0 0 0 0 0 0 0 0 0 0 0 0 0 0 0 0 0 0 0 0 0 0 0
0 0 0 0 0 0 0 0 0 0 0 0 0 0 0 0 0 0 0 0 0 0 0 0 0 0 0 0 0 0 0 0 0 0 0 1 0 0 0 0 0 0 0
1 0 0 0 0 0 0 0 0 0 0 0 0 0 0 0 0 0 0 0 0 0 0 0 0 0 0 0 0 0 0 0 0 0 0 0 0 0 0 0 0 0 0
1 0 0 0 0 0 0 0 0 0 0 0 0 0 0 0 0 0 0 0 0 0 0 0 0 0 0 0 0 0 0 0 0 0 0 0 0 0 0 0 0 0 0
1 1 1 0 0 0 0 0 0 0 0 0 0 0 0 0 0 0 0 0 0 0 0 0 0 0 0 0 0 0 0 0 0 0 0 0 0 0 0 0 0 0 0
1 1 1 0 0 0 0 0 0 0 0 0 0 0 0 0 0 0 0 0 0 0 0 0 0 0 0 0 0 0 0 0 0 0 0 0 0 0 0 0 0 0 0
1 1 1 0 0 0 0 0 0 0 0 0 0 0 0 0 0 0 0 0 0 0 0 0 0 0 0 0 0 0 0 0 0 0 0 0 0 0 0 0 0 0 0
Wind_Speed_500mb
9 4 10 17 20 23 23 13 11 28 35 32 21 17 17 17 21 21 23 19 17 18 14 9 11 7 4 9 5 4 5 2 3 2 4 11 15 17 18 16 17 19 21
12 7 4 15 16 15 15 10 12 19 29 25 21 17 13 16 18 20 23 22 21 20 18 14 12 12 9 9 10 8 6 5 5 5 9 15 16 21 27 25 25 26 25
6 7 5 5 12 11 8 11 12 14 21 33 33 28 26 18 17 19 19 22 25 24 24 23 17 15 10 11 12 12 11 7 11 9 10 12 12 7 20 24 23 28 27
5 8 8 11 9 7 4 1 9 15 21 30 31 31 22 17 15 18 19 22 25 26 26 26 24 17 14 17 15 16 15 14 13 16 15 17 19 11 18 16 23 25 30
8 10 8 12 12 15 12 7 12 19 26 27 34 33 28 23 16 22 21 23 27 26 24 28 27 25 18 20 20 21 19 18 16 20 17 19 18 22 21 32 27 24 26
13 15 13 12 12 14 19 15 17 17 19 26 30 33 33 32 21 24 22 20 24 26 28 28 29 30 27 23 21 23 23 20 21 21 23 25 25 27 31 35 34 31 29
20 22 20 18 17 20 20 21 23 19 14 23 27 29 24 30 28 30 25 24 20 23 28 29 31 29 32 31 26 26 27 25 26 27 26 27 30 31 33 34 37 39 37
23 25 24 23 23 14 16 23 29 29 25 26 25 29 28 27 25 29 26 22 21 24 25 28 33 34 33 33 33 28 30 30 33 38 40 34 33 35 36 36 36 39 37
24 25 26 27 27 21 15 10 22 25 27 29 28 30 29 28 25 23 32 26 29 26 31 35 34 31 31 32 34 34 36 37 40 41 37 38 33 36 37 38 37 38 43
22 23 27 30 31 28 21 12 15 20 24 22 21 22 22 26 24 21 19 24 27 30 31 33 33 34 31 32 36 36 36 40 41 38 37 36 34 36 37 38 36 36 40
19 24 25 27 30 32 27 19 11 11 12 13 16 17 22 24 23 25 19 16 25 31 31 34 37 32 31 31 35 40 43 40 37 33 33 36 36 38 35 36 37 38 38
20 22 22 24 27 30 29 23 13 11 11 13 15 16 17 20 24 26 27 20 26 26 29 31 34 29 28 30 34 38 40 45 40 44 37 40 36 34 34 34 38 39 38
18 19 21 23 25 29 29 22 15 11 15 14 15 13 14 18 21 21 23 23 24 28 24 25 28 28 28 29 31 35 40 35 36 34 44 46 32 32 31 32 35 36 40
16 18 20 23 25 29 28 17 12 16 17 15 15 15 15 15 19 19 20 24 24 22 20 18 20 22 24 30 37 44 43 41 38 43 46 33 30 30 28 29 32 36 40
16 20 20 21 25 27 22 12 15 18 15 14 15 17 20 15 14 17 19 22 22 23 24 24 24 25 36 38 42 36 36 33 31 31 31 31 33 35 35 34 32 34 38
17 18 19 20 24 23 16 11 15 15 13 12 10 13 17 18 18 15 10 10 11 18 26 36 29 38 37 42 31 31 34 33 34 35 33 34 41 41 41 42 44 47 50
16 18 18 19 20 16 10 10 12 11 10 10 12 14 15 16 18 17 13 8 11 12 17 19 23 26 24 31 34 37 40 40 36 37 38 38 38 45 45 50 52 53 53
14 15 16 17 14 9 10 11 13 8 8 10 10 13 12 14 17 16 16 15 12 11 12 13 18 22 25 35 34 36 39 43 46 44 45 46 47 50 52 50 48 51 56
10 12 12 10 9 9 13 12 11 9 8 6 7 11 12 14 17 18 18 18 16 15 18 17 19 22 22 29 28 31 38 35 41 45 47 50 52 56 56 57 54 58 69
9 10 10 9 9 12 12 11 14 8 7 5 7 9 10 14 18 19 19 20 19 20 18 23 26 27 31 31 31 31 35 38 44 45 48 54 54 54 56 58 63 68 57
12 11 9 10 11 11 11 10 10 9 9 7 11 13 16 23 20 23 23 22 22 24 26 26 28 31 31 32 36 36 41 41 46 51 54 51 59 57 61 52 51 53 64
15 14 13 14 13 11 10 12 11 10 7 9 13 15 18 20 18 22 21 20 19 22 25 26 29 31 32 38 36 42 44 42 41 38 34 39 55 71 66 65 61 59 54
20 18 16 16 13 11 10 12 15 11 11 12 12 13 17 16 18 19 18 18 21 24 28 30 33 37 37 35 37 34 40 48 49 46 54 55 53 47 44 39 43 47 46
25 20 18 16 14 12 10 12 12 12 12 15 14 14 13 20 16 16 18 20 22 24 28 30 33 31 32 35 39 50 49 46 39 42 44 41 40 35 44 39 31 38 37
27 23 22 19 16 14 11 11 11 12 11 12 15 16 15 17 17 19 20 20 19 19 18 21 25 27 31 37 45 44 42 40 40 48 37 36 33 37 37 34 35 34 33
31 27 24 22 21 17 14 12 12 10 12 13 14 17 16 19 20 23 22 24 21 23 30 28 29 29 38 49 47 42 41 41 41 35 32 35 38 36 41 38 37 31 25
Wind_Direction_500mb
187 145 52 45 52 74 71 91 197 224 220 223 213 225 240 248 238 230 225 225 227 239 250 249 263 258 257 241 268 305 299 275 294 264 232 229 233 231 231 242 247 266 276
180 180 63 43 48 57 83 107 161 208 220 219 215 219 248 261 247 246 238 236 238 237 247 241 242 238 235 258 245 247 218 259 268 249 257 243 235 243 245 248 260 264 267
226 228 268 15 32 30 62 123 165 186 209 220 231 245 259 273 260 248 251 249 245 240 241 241 224 234 232 243 244 243 227 245 271 261 266 273 265 284 255 245 261 266 267
335 252 254 259 309 347 335 179 153 192 217 230 225 238 228 234 243 237 239 233 246 241 237 233 233 233 227 232 243 241 223 251 260 275 271 261 275 275 287 249 276 273 274
346 349 295 264 282 282 287 272 213 215 222 234 232 247 243 251 262 236 238 250 241 247 233 229 234 236 235 243 230 232 240 241 250 272 280 279 286 288 283 289 283 272 280
0 357 332 298 289 264 262 239 229 225 243 243 249 255 256 266 249 229 228 234 241 249 232 225 237 243 239 238 243 241 239 233 246 261 271 277 281 286 285 282 283 279 277
9 359 354 343 320 285 257 233 238 251 285 255 253 269 269 264 268 227 233 223 236 233 233 245 244 248 250 237 236 241 231 243 259 266 273 280 280 282 280 278 281 284 279
7 7 8 10 5 352 263 238 245 261 290 284 261 273 275 271 259 233 226 231 228 238 234 248 248 252 245 240 240 244 245 248 262 276 278 270 276 282 276 275 277 280 280
36 31 26 23 19 16 11 290 249 262 276 285 258 273 278 280 256 247 252 239 238 241 251 256 254 247 246 238 240 248 246 262 273 277 270 269 281 279 275 274 268 270 280
31 25 16 14 9 4 358 323 283 287 294 294 284 274 265 278 256 249 258 242 245 253 252 256 250 247 242 243 248 245 256 270 275 273 275 277 287 276 276 270 266 263 269
22 11 10 10 8 6 356 346 329 320 314 313 309 280 267 272 259 256 256 265 261 259 261 260 257 245 244 245 253 254 265 270 273 272 277 284 288 280 270 270 269 269 270
14 6 3 4 4 3 2 355 358 2 350 348 328 309 285 273 266 262 258 257 262 265 270 263 257 249 251 257 257 260 269 275 267 285 280 285 281 270 272 268 265 267 268
9 2 2 2 359 356 355 355 5 6 355 349 349 328 311 287 276 262 250 263 284 275 269 261 253 252 254 263 266 271 277 272 274 277 286 289 275 270 267 262 263 268 274
1 1 358 355 353 351 351 0 11 7 356 3 0 344 330 306 289 274 259 251 272 271 265 259 262 259 261 271 273 286 282 279 271 277 286 272 266 269 270 272 272 274 274
350 352 348 347 346 347 347 351 6 357 6 5 6 22 16 2 326 305 288 276 290 278 260 261 266 260 262 278 280 285 285 274 273 280 277 272 263 266 272 272 272 270 276
344 342 338 338 341 340 336 341 0 354 358 358 5 2 3 7 12 9 349 302 279 262 260 282 274 272 283 282 282 288 281 267 271 277 277 276 275 277 275 278 284 283 283
333 335 332 335 331 335 331 335 348 338 344 0 353 358 19 27 24 22 23 0 314 292 295 292 296 291 282 284 288 286 279 273 272 274 276 273 273 273 272 283 289 285 282
324 327 327 327 320 316 314 323 327 316 336 355 9 26 30 23 17 16 10 2 341 323 308 298 287 284 285 287 289 290 284 282 278 274 274 274 276 278 281 274 270 274 278
305 314 316 313 303 295 309 313 311 298 325 345 19 17 2 348 351 352 354 347 340 326 314 304 299 298 295 300 302 286 285 281 282 282 277 276 279 283 288 284 281 285 288
274 292 290 294 301 292 302 302 297 286 310 320 350 344 340 336 330 328 326 324 322 321 308 299 296 297 304 305 309 300 290 282 284 283 282 284 289 293 290 294 289 283 281
254 267 266 286 283 275 284 294 292 277 281 294 328 324 324 331 329 329 323 317 312 306 303 301 301 301 299 307 304 298 289 285 287 290 293 293 288 290 294 292 296 282 277
247 254 256 274 269 269 276 291 286 264 298 314 317 317 319 324 320 330 330 320 317 320 315 315 318 314 309 308 313 309 306 303 304 310 302 298 310 314 308 301 304 301 300
245 247 252 266 267 267 273 288 292 280 277 301 305 313 321 323 330 334 334 338 325 324 322 322 320 321 321 326 327 331 323 323 322 312 312 313 317 315 315 321 317 312 307
239 242 245 254 255 257 273 280 280 280 276 287 299 309 317 324 330 338 325 327 326 324 323 328 330 331 329 329 324 329 322 324 323 315 314 316 325 335 330 325 323 326 323
238 232 237 242 240 250 269 273 277 273 269 273 285 298 309 309 319 322 322 331 325 332 347 341 342 337 335 327 331 327 324 320 318 319 325 317 326 321 320 318 321 315 314
232 229 232 230 231 239 256 265 261 260 265 271 290 295 307 312 318 320 324 323 331 350 354 355 349 344 331 337 334 332 329 325 324 334 324 320 319 318 322 315 320 318 334
Wind_Speed_850mb
9 4 10 17 20 23 23 13 11 28 35 32 21 17 17 17 21 21 23 19 17 18 14 9 11 7 4 9 5 4 5 2 3 2 4 11 15 17 18 16 17 19 21
12 7 4 15 16 15 15 10 12 19 29 25 21 17 13 16 18 20 23 22 21 20 18 14 12 12 9 9 10 8 6 5 5 5 9 15 16 21 27 25 25 26 25
6 7 5 5 12 11 8 11 12 14 21 33 33 28 26 18 17 19 19 22 25 24 24 23 17 15 10 11 12 12 11 7 11 9 10 12 12 7 20 24 23 28 27
5 8 8 11 9 7 4 1 9 15 21 30 31 31 22 17 15 18 19 22 25 26 26 26 24 17 14 17 15 16 15 14 13 16 15 17 19 11 18 16 23 25 30
8 10 8 12 12 15 12 7 12 19 26 27 34 33 28 23 16 22 21 23 27 26 24 28 27 25 18 20 20 21 19 18 16 20 17 19 18 22 21 32 27 24 26
13 15 13 12 12 14 19 15 17 17 19 26 30 33 33 32 21 24 22 20 24 26 28 28 29 30 27 23 21 23 23 20 21 21 23 25 25 27 31 35 34 31 29
20 22 20 18 17 20 20 21 23 19 14 23 27 29 24 30 28 30 25 24 20 23 28 29 31 29 32 31 26 26 27 25 26 27 26 27 30 31 33 34 37 39 37
23 25 24 23 23 14 16 23 29 29 25 26 25 29 28 27 25 29 26 22 21 24 25 28 33 34 33 33 33 28 30 30 33 38 40 34 33 35 36 36 36 39 37
24 25 26 27 27 21 15 10 22 25 27 29 28 30 29 28 25 23 32 26 29 26 31 35 34 31 31 32 34 34 36 37 40 41 37 38 33 36 37 38 37 38 43
22 23 27 30 31 28 21 12 15 20 24 22 21 22 22 26 24 21 19 24 27 30 31 33 33 34 31 32 36 36 36 40 41 38 37 36 34 36 37 38 36 36 40
19 24 25 27 30 32 27 19 11 11 12 13 16 17 22 24 23 25 19 16 25 31 31 34 37 32 31 31 35 40 43 40 37 33 33 36 36 38 35 36 37 38 38
20 22 22 24 27 30 29 23 13 11 11 13 15 16 17 20 24 26 27 20 26 26 29 31 34 29 28 30 34 38 40 45 40 44 37 40 36 34 34 34 38 39 38
18 19 21 23 25 29 29 22 15 11 15 14 15 13 14 18 21 21 23 23 24 28 24 25 28 28 28 29 31 35 40 35 36 34 44 46 32 32 31 32 35 36 40
16 18 20 23 25 29 28 17 12 16 17 15 15 15 15 15 19 19 20 24 24 22 20 18 20 22 24 30 37 44 43 41 38 43 46 33 30 30 28 29 32 36 40
16 20 20 21 25 27 22 12 15 18 15 14 15 17 20 15 14 17 19 22 22 23 24 24 24 25 36 38 42 36 36 33 31 31 31 31 33 35 35 34 32 34 38
17 18 19 20 24 23 16 11 15 15 13 12 10 13 17 18 18 15 10 10 11 18 26 36 29 38 37 42 31 31 34 33 34 35 33 34 41 41 41 42 44 47 50
16 18 18 19 20 16 10 10 12 11 10 10 12 14 15 16 18 17 13 8 11 12 17 19 23 26 24 31 34 37 40 40 36 37 38 38 38 45 45 50 52 53 53
14 15 16 17 14 9 10 11 13 8 8 10 10 13 12 14 17 16 16 15 12 11 12 13 18 22 25 35 34 36 39 43 46 44 45 46 47 50 52 50 48 51 56
10 12 12 10 9 9 13 12 11 9 8 6 7 11 12 14 17 18 18 18 16 15 18 17 19 22 22 29 28 31 38 35 41 45 47 50 52 56 56 57 54 58 69
9 10 10 9 9 12 12 11 14 8 7 5 7 9 10 14 18 19 19 20 19 20 18 23 26 27 31 31 31 31 35 38 44 45 48 54 54 54 56 58 63 68 57
12 11 9 10 11 11 11 10 10 9 9 7 11 13 16 23 20 23 23 22 22 24 26 26 28 31 31 32 36 36 41 41 46 51 54 51 59 57 61 52 51 53 64
15 14 13 14 13 11 10 12 11 10 7 9 13 15 18 20 18 22 21 20 19 22 25 26 29 31 32 38 36 42 44 42 41 38 34 39 55 71 66 65 61 59 54
20 18 16 16 13 11 10 12 15 11 11 12 12 13 17 16 18 19 18 18 21 24 28 30 33 37 37 35 37 34 40 48 49 46 54 55 53 47 44 39 43 47 46
25 20 18 16 14 12 10 12 12 12 12 15 14 14 13 20 16 16 18 20 22 24 28 30 33 31 32 35 39 50 49 46 39 42 44 41 40 35 44 39 31 38 37
27 23 22 19 16 14 11 11 11 12 11 12 15 16 15 17 17 19 20 20 19 19 18 21 25 27 31 37 45 44 42 40 40 48 37 36 33 37 37 34 35 34 33
31 27 24 22 21 17 14 12 12 10 12 13 14 17 16 19 20 23 22 24 21 23 30 28 29 29 38 49 47 42 41 41 41 35 32 35 38 36 41 38 37 31 25
Wind_Direction_850mb
187 145 52 45 52 74 71 91 197 224 220 223 213 225 240 248 238 230 225 225 227 239 250 249 263 258 257 241 268 305 299 275 294 264 232 229 233 231 231 242 247 266 276
180 180 63 43 48 57 83 107 161 208 220 219 215 219 248 261 247 246 238 236 238 237 247 241 242 238 235 258 245 247 218 259 268 249 257 243 235 243 245 248 260 264 267
226 228 268 15 32 30 62 123 165 186 209 220 231 245 259 273 260 248 251 249 245 240 241 241 224 234 232 243 244 243 227 245 271 261 266 273 265 284 255 245 261 266 267
335 252 254 259 309 347 335 179 153 192 217 230 225 238 228 234 243 237 239 233 246 241 237 233 233 233 227 232 243 241 223 251 260 275 271 261 275 275 287 249 276 273 274
346 349 295 264 282 282 287 272 213 215 222 234 232 247 243 251 262 236 238 250 241 247 233 229 234 236 235 243 230 232 240 241 250 272 280 279 286 288 283 289 283 272 280
0 357 332 298 289 264 262 239 229 225 243 243 249 255 256 266 249 229 228 234 241 249 232 225 237 243 239 238 243 241 239 233 246 261 271 277 281 286 285 282 283 279 277
9 359 354 343 320 285 257 233 238 251 285 255 253 269 269 264 268 227 233 223 236 233 233 245 244 248 250 237 236 241 231 243 259 266 273 280 280 282 280 278 281 284 279
7 7 8 10 5 352 263 238 245 261 290 284 261 273 275 271 259 233 226 231 228 238 234 248 248 252 245 240 240 244 245 248 262 276 278 270 276 282 276 275 277 280 280
36 31 26 23 19 16 11 290 249 262 276 285 258 273 278 280 256 247 252 239 238 241 251 256 254 247 246 238 240 248 246 262 273 277 270 269 281 279 275 274 268 270 280
31 25 16 14 9 4 358 323 283 287 294 294 284 274 265 278 256 249 258 242 245 253 252 256 250 247 242 243 248 245 256 270 275 273 275 277 287 276 276 270 266 263 269
22 11 10 10 8 6 356 346 329 320 314 313 309 280 267 272 259 256 256 265 261 259 261 260 257 245 244 245 253 254 265 270 273 272 277 284 288 280 270 270 269 269 270
14 6 3 4 4 3 2 355 358 2 350 348 328 309 285 273 266 262 258 257 262 265 270 263 257 249 251 257 257 260 269 275 267 285 280 285 281 270 272 268 265 267 268
9 2 2 2 359 356 355 355 5 6 355 349 349 328 311 287 276 262 250 263 284 275 269 261 253 252 254 263 266 271 277 272 274 277 286 289 275 270 267 262 263 268 274
1 1 358 355 353 351 351 0 11 7 356 3 0 344 330 306 289 274 259 251 272 271 265 259 262 259 261 271 273 286 282 279 271 277 286 272 266 269 270 272 272 274 274
350 352 348 347 346 347 347 351 6 357 6 5 6 22 16 2 326 305 288 276 290 278 260 261 266 260 262 278 280 285 285 274 273 280 277 272 263 266 272 272 272 270 276
344 342 338 338 341 340 336 341 0 354 358 358 5 2 3 7 12 9 349 302 279 262 260 282 274 272 283 282 282 288 281 267 271 277 277 276 275 277 275 278 284 283 283
333 335 332 335 331 335 331 335 348 338 344 0 353 358 19 27 24 22 23 0 314 292 295 292 296 291 282 284 288 286 279 273 272 274 276 273 273 273 272 283 289 285 282
324 327 327 327 320 316 314 323 327 316 336 355 9 26 30 23 17 16 10 2 341 323 308 298 287 284 285 287 289 290 284 282 278 274 274 274 276 278 281 274 270 274 278
305 314 316 313 303 295 309 313 311 298 325 345 19 17 2 348 351 352 354 347 340 326 314 304 299 298 295 300 302 286 285 281 282 282 277 276 279 283 288 284 281 285 288
274 292 290 294 301 292 302 302 297 286 310 320 350 344 340 336 330 328 326 324 322 321 308 299 296 297 304 305 309 300 290 282 284 283 282 284 289 293 290 294 289 283 281
254 267 266 286 283 275 284 294 292 277 281 294 328 324 324 331 329 329 323 317 312 306 303 301 301 301 299 307 304 298 289 285 287 290 293 293 288 290 294 292 296 282 277
247 254 256 274 269 269 276 291 286 264 298 314 317 317 319 324 320 330 330 320 317 320 315 315 318 314 309 308 313 309 306 303 304 310 302 298 310 314 308 301 304 301 300
245 247 252 266 267 267 273 288 292 280 277 301 305 313 321 323 330 334 334 338 325 324 322 322 320 321 321 326 327 331 323 323 322 312 312 313 317 315 315 321 317 312 307
239 242 245 254 255 257 273 280 280 280 276 287 299 309 317 324 330 338 325 327 326 324 323 328 330 331 329 329 324 329 322 324 323 315 314 316 325 335 330 325 323 326 323
238 232 237 242 240 250 269 273 277 273 269 273 285 298 309 309 319 322 322 331 325 332 347 341 342 337 335 327 331 327 324 320 318 319 325 317 326 321 320 318 321 315 314
232 229 232 230 231 239 256 265 261 260 265 271 290 295 307 312 318 320 324 323 331 350 354 355 349 344 331 337 334 332 329 325 324 334 324 320 319 318 322 315 320 318 334